Regional Weather Roundup
Issued by NWS

Home | Current Version | Previous Version | Graphics & Text | Print | Product List | Glossary Off
Versions: 1 2 3 4 5 6 7 8 9 10 11 12 13 14 15 16 17 18 19 20 21 22 23 24 25 26 27 28 29 30 31 32 33 34 35 36 37 38 39 40 41 42 43 44 45 46 47 48 49 50

000
ASUS43 KTOP 252159
RWRKS

WEATHER ROUNDUP FOR KANSAS
NATIONAL WEATHER SERVICE GOODLAND KS
400 PM CST THU DEC 25 2014

NOTE:  "FAIR" INDICATES FEW OR NO CLOUDS BELOW 12,000 FEET WITH NO
SIGNIFICANT WEATHER AND/OR OBSTRUCTIONS TO VISIBILITY.

KSZ001>006-013>018-027>032-041>047-252300-
NORTHWEST KANSAS

CITY           SKY/WX    TMP DP  RH WIND       PRES   REMARKS
GOODLAND       SUNNY     42  23  46 N17G25    29.51R
HAYS           MOSUNNY   55  25  30 S12       29.49R
HILL CITY      SUNNY     55  26  32 N9        29.48R
RUSSELL        PTSUNNY   54  26  34 S17G26    29.48R
$$

KSZ061>065-074>080-084>089-252300-
SOUTHWEST KANSAS

CITY           SKY/WX    TMP DP  RH WIND       PRES   REMARKS
DODGE CITY     CLOUDY    55  20  25 S17G25    29.51R
ELKHART          N/A     57  18  22 SW13        N/A
GARDEN CITY    CLOUDY    54  26  34 S18       29.48R
GREAT BEND     CLOUDY    52  27  37 S25       29.52R
LIBERAL        CLOUDY    55  21  26 SW16      29.55R
$$

KSZ066>073-081>083-090>101-252300-
SOUTHEAST KANSAS

CITY           SKY/WX    TMP DP  RH WIND       PRES   REMARKS
CHANUTE        PTSUNNY   53  31  42 S20G28    29.72S
COFFEYVILLE    PTSUNNY   56  28  34 S23G31    29.75R
HUTCHINSON     CLOUDY    53  28  38 S24G32    29.59R
NEWTON         PTSUNNY   52  27  37 S28G33    29.62R
PARSONS        PTSUNNY   57  28  33 S21G32    29.75R
WICHITA INTL   CLOUDY    54  28  36 S21       29.63R
WICHITA JABRA  PTSUNNY   54  27  35 S24G41    29.62R
WINFIELD       MOSUNNY   56  28  34 S21G30    29.68R
$$

KSZ007>012-019>026-033>040-048>060-102>105-252300-
NORTHEAST KANSAS

CITY           SKY/WX    TMP DP  RH WIND       PRES   REMARKS
CONCORDIA      PTSUNNY   50  31  48 S15       29.54R
EMPORIA        CLOUDY    54  28  36 S20G29    29.63R
LAWRENCE       CLOUDY    52  29  41 S18G24    29.68R
MANHATTAN      PTSUNNY   55  28  35 S22G33    29.58S
OLATHE IND     CLOUDY    50  31  48 S21G37    29.69S
OLATHE EXE     CLOUDY    52  28  39 S25G40    29.68S
SALINA         CLOUDY    53  30  41 S17G30    29.56R
TOPEKA BILLARD MOCLDY    54  29  38 S14G23    29.66R
TOPEKA FORBES  MOCLDY    53  30  41 S18G29    29.64R
$$


USA.gov is the U.S. government's official web portal to all federal, state and local government web resources and services.